Asheville, NC

3:25 PM EST on December 15, 2019 (GMT -0500)
Asheville Regional

Weather History for KAVL - September, 2019

Change the Weather History Date:

Saturday, September 28, 2019

  Actual Average Record
Temperature  
Mean Temperature 75 °F 62 °F  
Max Temperature 83 °F 73 °F 89 °F (1939)
Min Temperature 67 °F 51 °F 35 °F (1940)
Degree Days  
Heating Degree Days 0 4  
Month to date heating degree days 2 44  
Since 1 July heating degree days 2 46  
Cooling Degree Days 10 1  
Month to date cooling degree days 242 93  
Year to date cooling degree days 1248 850  
Growing Degree Days 24 (Base 50)    
Moisture  
Dew Point 66 °F    
Average Humidity 78    
Maximum Humidity 93    
Minimum Humidity 63    
Precipitation  
Precipitation 0.11 in 0.12 in 2.24 in (1963)
Month to date precipitation 0.51 3.57  
Year to date precipitation 42.22 35.18  
Snow  
Snow 0.00 in 0.00 in 0.00 in ()
Month to date snowfall 0.0 0.0  
Since 1 July snowfall 0.0 0.0  
Since 1 September snowfall 0.0 0.0  
Snow Depth 0.00 in    
Sea Level Pressure  
Sea Level Pressure 30.17 in    
Wind  
Wind Speed 3 mph (SSE)    
Max Wind Speed 14 mph    
Max Gust Speed 17 mph    
Visibility 9 miles    
Events Rain , Thunderstorm    
T = Trace of Precipitation, MM = Missing Value Source: NWS Daily Summary

Daily Weather History Graph

Daily Weather History Graph

Search for Another Location

Airport or City:

Astronomy

Sep. 28, 2019 Rise Set
Actual Time 7:22 AM EDT 7:18 PM EDT
Civil Twilight 6:57 AM EDT 7:43 PM EDT
Nautical Twilight 6:27 AM EDT 8:13 PM EDT
Astronomical Twilight 5:57 AM EDT 8:43 PM EDT
Moon 7:00 AM EDT (9/28) 7:42 PM EDT (9/28)
Length of Visible Light 12h 46m
Length of Day
11h 56m
Waning Crescent, 0% of the Moon is Illuminated
Sep 28
Waning Crescent
Sep 28
New
Oct 5
First Quarter
Oct 13
Full
Oct 21
Last Quarter

Hourly Weather History & Observations

Time (EDT) Temp. Heat Index Dew Point Humidity Pressure Visibility Wind Dir Wind Speed Gust Speed Precip Events Conditions
12:54 AM 71.1 °F - 66.0 °F 84% 30.06 in 10.0 mi Calm Calm - N/A   Scattered Clouds
1:54 AM 69.1 °F - 66.0 °F 90% 30.04 in 10.0 mi South 3.5 mph - N/A   Clear
2:54 AM 71.1 °F - 66.0 °F 84% 30.06 in 10.0 mi SE 4.6 mph - N/A   Mostly Cloudy
3:54 AM 72.0 °F - 66.0 °F 81% 30.06 in 10.0 mi SE 4.6 mph - N/A   Mostly Cloudy
4:54 AM 71.1 °F - 66.0 °F 84% 30.07 in 10.0 mi SSE 4.6 mph - 0.00 in   Scattered Clouds
5:54 AM 69.1 °F - 66.0 °F 90% 30.09 in 10.0 mi South 3.5 mph - N/A   Overcast
6:54 AM 69.1 °F - 66.0 °F 90% 30.10 in 10.0 mi Calm Calm - N/A   Scattered Clouds
7:54 AM 70.0 °F - 66.0 °F 87% 30.12 in 10.0 mi ESE 3.5 mph - N/A   Overcast
8:54 AM 70.0 °F - 66.0 °F 87% 30.14 in 8.0 mi Calm Calm - N/A   Scattered Clouds
9:49 AM 71.6 °F - 66.2 °F 83% 30.23 in 10.0 mi Calm Calm - N/A   Mostly Cloudy
9:54 AM 73.0 °F - 66.9 °F 81% 30.16 in 10.0 mi SSE 3.5 mph - N/A   Scattered Clouds
10:10 AM 73.9 °F - 66.9 °F 79% 30.23 in 10.0 mi Variable 3.5 mph - N/A   Scattered Clouds
10:54 AM 75.9 °F - 66.9 °F 74% 30.16 in 10.0 mi Calm Calm - N/A   Partly Cloudy
11:54 AM 79.0 °F - 68.0 °F 69% 30.16 in 10.0 mi South 4.6 mph - N/A   Partly Cloudy
12:54 PM 82.9 °F 85.8 °F 68.0 °F 60% 30.15 in 10.0 mi SSE 8.1 mph - N/A   Partly Cloudy
1:10 PM 82.9 °F 86.5 °F 69.1 °F 63% 30.23 in 10.0 mi SSW 8.1 mph - N/A Thunderstorm Scattered Clouds
1:54 PM 79.0 °F - 68.0 °F 69% 30.13 in 10.0 mi SSE 9.2 mph - N/A Thunderstorm Clear
2:54 PM 75.0 °F - 70.0 °F 84% 30.17 in 7.0 mi South 6.9 mph - 0.01 in Rain , Thunderstorm Light Rain
3:03 PM 75.0 °F - 70.0 °F 84% 30.24 in 4.0 mi SSE 5.8 mph - 0.01 in Rain , Thunderstorm Rain
3:09 PM 73.9 °F - 69.1 °F 85% 30.24 in 2.5 mi North 5.8 mph - 0.03 in Rain , Thunderstorm Rain
3:13 PM 73.9 °F - 68.0 °F 82% 30.25 in 2.0 mi Variable 3.5 mph - 0.04 in Rain , Thunderstorm Heavy Rain
3:22 PM 71.1 °F - 66.9 °F 87% 30.26 in 3.0 mi Variable 4.6 mph - 0.06 in Rain , Thunderstorm Light Thunderstorms and Rain
3:54 PM 69.1 °F - 64.9 °F 87% 30.16 in 10.0 mi South 4.6 mph - 0.10 in Rain , Thunderstorm Light Thunderstorms and Rain
4:02 PM 71.1 °F - 66.0 °F 84% 30.22 in 10.0 mi SW 3.5 mph - 0.00 in Rain Light Rain
4:38 PM 72.0 °F - 66.9 °F 84% 30.23 in 10.0 mi Calm Calm - 0.00 in   Scattered Clouds
4:54 PM 72.0 °F - 66.0 °F 81% 30.16 in 10.0 mi Calm Calm - 0.00 in   Scattered Clouds
5:54 PM 73.0 °F - 66.9 °F 81% 30.17 in 10.0 mi Calm Calm - N/A   Clear
6:54 PM 73.0 °F - 66.0 °F 79% 30.17 in 10.0 mi Calm Calm - N/A   Clear
7:54 PM 70.0 °F - 64.9 °F 84% 30.16 in 10.0 mi Calm Calm - N/A   Clear
8:54 PM 69.1 °F - 66.0 °F 90% 30.17 in 10.0 mi Calm Calm - 0.00 in   Clear
9:23 PM 68.0 °F - 64.9 °F 90% 30.24 in 10.0 mi Calm Calm - N/A   Partly Cloudy
9:54 PM 68.0 °F - 64.9 °F 90% 30.18 in 10.0 mi Calm Calm - N/A   Clear
10:17 PM 68.0 °F - 64.9 °F 90% 30.25 in 10.0 mi Calm Calm - N/A   Partly Cloudy
10:54 PM 66.9 °F - 64.9 °F 93% 30.18 in 9.0 mi Calm Calm - N/A   Scattered Clouds
11:10 PM 66.9 °F - 64.0 °F 90% 30.26 in 9.0 mi Calm Calm - N/A   Mostly Cloudy
11:28 PM 66.9 °F - 64.9 °F 93% 30.26 in 10.0 mi Calm Calm - N/A   Overcast
11:39 PM 66.9 °F - 64.9 °F 93% 30.26 in 9.0 mi Calm Calm - N/A   Overcast
11:54 PM 68.0 °F - 64.9 °F 90% 30.19 in 10.0 mi Calm Calm - N/A   Overcast